Temperature
17 17 17 17 17 17 16 16 17 17 17 17 17 17 17 17 16 16 16 17 17 17 17 17 17 17 17 17 17 17 17 17 17 17 17 17 17 17 17 17 17 17 17
17 17 17 17 17 17 17 17 17 17 17 17 17 16 16 16 16 16 16 16 17 17 17 17 17 17 17 17 17 17 17 17 17 17 17 17 17 17 17 17 17 17 17
17 17 17 17 17 17 17 17 17 17 17 17 17 16 16 16 16 16 16 16 16 16 16 16 16 17 16 17 17 17 16 16 16 16 16 16 16 17 17 17 17 17 17
17 17 17 17 17 17 17 17 17 17 17 17 17 17 16 16 16 16 16 16 16 16 16 16 16 16 16 16 16 16 16 16 16 16 16 16 16 16 16 16 16 16 17
17 17 17 17 17 16 17 17 17 17 17 17 17 16 16 16 16 16 16 16 16 16 15 16 16 16 16 16 16 16 16 16 16 16 16 16 16 16 16 16 16 16 16
17 17 17 17 17 16 16 16 16 16 17 16 17 16 16 16 16 16 16 16 16 15 15 15 15 16 16 16 16 16 16 16 16 16 16 16 16 16 16 16 16 16 16
17 17 17 17 17 17 16 16 16 16 16 16 16 16 16 16 16 16 16 16 16 15 15 15 15 15 16 16 16 16 16 16 16 16 16 16 16 16 16 16 16 16 16
17 17 17 17 17 17 16 16 16 16 16 16 16 16 16 16 16 16 16 16 16 16 15 15 15 15 15 15 16 16 16 16 16 16 16 16 16 16 16 16 16 15 15
18 17 17 17 17 17 16 16 16 16 16 16 16 16 16 17 17 16 16 16 16 16 15 15 15 15 15 15 15 16 16 16 16 16 16 16 16 16 16 16 16 15 15
18 17 17 17 17 17 17 16 16 16 16 16 16 16 16 16 16 17 16 16 16 16 16 15 15 15 15 15 15 16 16 16 16 16 16 16 15 15 16 16 15 15 15
17 17 17 17 17 17 17 16 16 16 16 16 16 16 15 15 16 16 16 16 16 16 16 15 15 15 15 15 15 15 16 16 16 16 16 16 16 16 15 15 15 15 15
17 17 17 17 17 16 16 16 16 16 16 16 15 15 15 15 15 15 15 16 16 16 16 15 15 15 15 15 15 15 15 16 16 16 16 16 16 16 16 15 15 15 15
17 17 17 17 16 16 16 16 16 16 16 16 15 15 15 15 15 15 15 15 15 15 15 15 15 15 15 15 15 15 15 15 15 15 15 16 16 15 15 15 15 15 15
16 16 16 16 16 16 16 16 16 16 16 15 15 15 15 15 14 14 14 14 14 15 15 15 15 15 15 15 15 15 15 15 15 15 15 15 15 15 15 15 15 15 15
16 16 16 16 16 16 16 15 15 16 15 15 15 15 15 14 14 14 14 14 14 14 15 15 15 15 15 15 15 15 14 15 15 15 15 15 15 15 15 15 15 15 15
16 16 16 15 15 16 16 15 15 15 15 15 15 15 14 14 14 14 14 14 14 14 14 15 15 15 15 15 15 15 14 14 15 15 15 15 15 15 15 15 15 15 14
16 15 15 15 15 15 15 15 15 15 15 15 14 14 14 14 14 14 14 14 14 14 13 14 14 14 14 15 15 15 14 15 15 15 15 15 15 15 15 15 15 15 14
15 15 15 15 15 15 15 15 15 15 15 14 14 14 14 14 14 14 14 14 14 14 13 13 14 14 14 14 14 14 14 14 14 15 15 15 15 15 14 14 14 14 14
15 15 15 15 15 15 15 15 15 15 14 14 14 14 13 13 13 13 13 13 13 13 13 13 13 13 13 13 14 14 14 14 14 14 15 14 14 14 14 14 14 14 14
15 15 15 15 15 15 15 14 14 14 14 14 14 14 13 13 13 13 13 13 13 13 13 13 13 13 13 13 13 13 14 14 14 14 14 14 14 14 14 14 14 14 14
15 15 15 15 15 15 14 14 14 14 14 14 14 14 14 14 14 13 13 13 13 13 13 13 13 13 13 13 13 13 13 13 13 13 13 14 14 14 14 14 14 14 14
15 15 15 15 15 15 15 15 15 14 14 14 14 14 14 14 14 14 14 14 13 13 13 13 13 13 13 12 13 13 13 13 13 13 13 13 13 13 14 14 14 14 14
14 14 14 14 14 14 15 15 15 14 14 14 14 14 14 14 14 13 13 14 13 13 13 13 13 13 12 12 12 12 12 12 12 13 13 13 13 13 13 13 14 14 14
13 13 13 14 14 14 14 14 14 14 14 14 14 14 14 13 13 13 13 13 13 13 13 13 12 12 12 12 12 12 12 12 12 12 12 12 13 13 13 13 14 14 14
12 12 12 13 13 13 14 14 14 14 14 14 13 13 13 13 14 14 13 13 13 13 13 13 13 13 13 13 12 12 12 12 12 12 12 12 12 12 13 13 13 13 14
12 12 12 12 12 13 13 13 14 13 13 13 13 13 14 13 14 14 13 13 13 13 13 13 13 13 13 12 12 12 12 12 12 12 12 12 12 12 12 13 13 13 13
Wind_Speed
7 6 6 6 7 6 6 4 4 4 3 2 1 1 2 2 2 1 4 7 5 4 2 2 3 3 3 3 4 4 4 5 5 5 5 4 3 2 2 1 0 1 1
7 6 7 6 7 7 5 5 4 3 3 2 2 2 2 2 2 1 2 5 6 5 3 2 2 2 2 2 3 3 4 4 4 4 5 4 3 3 2 2 1 1 1
9 8 7 7 7 8 7 5 4 3 3 3 3 2 2 2 2 2 2 2 4 6 6 4 3 3 2 2 3 3 3 3 3 3 4 4 4 3 3 3 2 2 2
11 8 7 7 8 7 6 5 4 4 4 4 4 3 2 2 1 2 2 2 2 3 6 7 5 4 3 3 3 3 2 2 2 2 3 3 4 4 4 4 4 3 3
12 9 7 6 8 7 7 6 6 5 5 4 4 3 2 2 2 2 2 2 2 1 3 7 6 6 5 4 3 2 2 2 2 2 2 3 4 4 4 4 4 4 3
12 10 7 8 8 6 7 7 7 6 5 5 5 5 4 3 3 3 2 1 2 2 1 2 3 6 6 6 4 3 2 2 1 0 1 2 3 4 4 5 5 5 4
12 11 8 9 8 8 9 10 8 8 6 6 5 5 5 6 5 5 5 4 4 3 3 3 2 2 4 5 5 4 3 2 2 2 1 1 2 3 4 4 4 5 4
12 10 11 9 9 9 10 10 9 7 7 7 6 5 5 7 7 8 7 6 6 5 5 4 4 3 2 3 6 4 4 3 2 2 1 1 2 2 3 3 4 4 4
11 11 10 9 9 9 9 10 11 11 9 9 8 6 5 5 4 6 9 8 7 6 6 6 6 5 4 3 3 5 3 2 2 2 2 2 2 2 2 2 3 3 4
9 10 10 9 9 8 9 10 10 10 10 9 8 7 6 3 4 4 5 7 9 9 8 6 7 6 5 4 2 2 2 1 1 2 2 3 3 2 2 2 2 2 3
7 8 8 8 9 8 9 9 9 10 9 10 9 7 7 6 8 5 4 4 6 8 9 9 7 7 7 6 5 5 5 3 1 1 1 2 3 3 2 1 2 2 2
5 7 7 7 8 7 8 8 9 11 10 11 10 10 8 7 8 8 8 6 5 6 8 8 8 8 8 8 8 7 7 6 4 2 1 1 2 2 2 1 1 1 1
4 5 6 7 6 7 7 7 8 9 10 11 11 10 10 11 8 8 9 8 7 6 5 7 9 10 10 10 9 11 10 9 7 5 3 2 1 2 2 2 2 2 3
3 4 5 5 5 5 5 6 6 7 8 9 11 11 9 9 9 9 9 8 7 7 7 8 6 9 10 11 11 14 10 13 10 8 6 4 2 1 0 1 2 2 3
4 4 4 4 4 4 4 4 5 6 6 7 8 10 9 8 8 9 9 9 8 7 7 7 6 7 9 10 10 12 12 14 13 11 8 6 5 3 2 1 1 1 2
5 5 4 4 4 4 4 4 4 4 6 6 6 8 8 8 8 8 8 8 8 8 7 4 4 4 5 7 10 12 11 15 14 13 11 9 7 6 5 4 3 2 0
5 5 5 4 4 4 4 4 4 4 5 5 5 7 8 8 7 7 7 8 8 8 10 7 4 4 5 7 7 10 11 11 12 16 14 12 10 9 8 7 6 5 4
3 4 4 4 4 4 3 4 4 4 4 4 5 5 6 6 7 7 7 8 8 8 8 9 6 5 7 6 7 8 9 10 10 14 15 14 12 12 11 10 9 8 7
3 3 4 4 4 4 4 4 4 4 4 4 4 4 4 5 6 6 6 6 7 7 8 7 6 4 4 4 5 6 8 7 9 10 14 15 15 14 14 13 13 12 11
2 3 4 4 4 4 5 5 5 4 4 4 3 4 4 4 5 5 5 5 6 6 6 6 6 4 3 3 4 5 6 6 7 8 10 11 13 16 17 16 16 15 14
3 3 4 5 5 5 5 5 5 5 4 4 4 3 2 1 3 2 3 3 3 4 4 5 5 4 4 4 4 3 4 4 5 5 6 7 9 11 14 17 19 18 18
2 3 4 5 5 5 2 3 6 6 6 5 4 4 3 4 4 4 2 2 3 3 2 2 3 3 4 4 4 3 3 3 3 3 4 6 6 8 9 11 15 20 20
2 2 2 3 3 1 1 5 8 7 7 6 6 5 4 3 4 4 6 7 5 4 4 3 3 2 2 3 4 4 4 4 3 2 2 5 5 7 8 9 11 16 19
4 3 3 3 2 2 2 3 6 9 8 7 6 5 5 5 3 3 3 4 3 3 4 5 3 2 1 1 3 3 3 3 2 2 3 4 4 6 6 8 10 15 18
6 5 5 5 4 4 5 4 4 7 6 6 5 5 5 4 4 1 4 4 3 2 2 3 5 4 3 1 2 3 3 3 3 3 4 3 3 4 5 6 5 11 14
6 6 6 6 6 6 8 6 4 4 5 4 4 4 1 2 2 3 5 4 3 1 1 2 3 4 5 5 7 6 4 4 3 3 4 3 3 2 4 2 2 3 6
Wind_Direction
196 185 187 182 190 176 178 183 198 166 180 165 120 89 82 68 57 65 96 81 54 47 69 118 126 135 136 144 151 155 154 158 161 163 161 160 162 163 160 153 112 32 8
201 191 196 187 192 191 188 194 191 190 191 171 145 90 53 67 75 70 78 109 91 65 61 88 113 133 143 154 158 161 164 163 170 183 185 189 196 200 205 221 249 301 329
203 200 203 194 195 196 196 204 187 207 187 176 172 162 107 66 84 110 92 79 117 101 75 70 81 89 110 139 148 146 153 167 183 200 205 207 213 220 228 238 250 272 297
209 205 208 206 201 199 206 199 211 208 192 196 184 171 154 131 129 68 110 121 102 113 105 78 69 72 80 97 117 128 138 157 180 198 205 214 222 227 236 241 246 259 276
213 209 214 215 204 204 213 214 213 218 207 201 196 193 193 178 163 190 154 129 117 123 115 106 95 74 69 73 91 110 127 147 176 202 215 226 232 231 237 243 240 250 263
219 219 215 218 214 212 219 221 218 221 225 211 215 205 209 210 213 215 220 198 189 137 128 140 154 111 85 66 60 69 84 96 102 192 239 235 240 240 243 246 243 245 252
225 222 225 223 216 218 222 225 219 217 218 213 212 218 221 230 231 215 224 226 205 191 212 198 202 190 137 114 77 62 63 70 60 45 10 306 270 255 254 251 247 243 248
229 228 227 228 225 226 226 224 220 219 218 211 215 219 227 217 222 227 221 228 230 204 221 212 204 207 209 190 106 81 57 51 38 29 16 341 299 269 271 263 249 240 245
234 230 235 235 234 231 228 224 220 218 217 219 222 216 228 231 210 209 221 222 229 227 224 222 219 208 202 209 176 134 88 47 33 29 12 359 339 291 271 261 257 251 250
238 233 233 234 234 231 231 228 224 223 219 217 219 229 237 248 232 218 211 224 225 228 230 220 227 224 212 205 186 136 141 73 23 8 10 1 353 340 280 257 263 270 264
237 232 231 232 232 231 231 228 224 222 221 219 213 208 218 228 240 242 236 223 223 230 232 227 222 223 215 215 208 180 172 195 220 282 331 348 353 349 325 283 279 284 275
235 227 225 229 232 231 230 227 225 223 227 226 222 217 213 216 222 225 233 235 234 237 231 227 227 222 219 220 215 170 189 200 207 216 250 313 338 350 352 337 333 350 333
224 215 214 221 223 228 229 225 228 227 227 230 229 229 230 231 232 230 233 239 239 240 235 230 225 222 218 219 211 188 202 202 205 210 217 234 290 335 351 357 4 21 29
210 192 201 207 209 213 216 218 228 229 231 231 236 237 238 239 237 233 235 237 238 238 234 235 218 220 221 219 211 191 204 196 202 206 208 211 213 216 7 28 40 41 37
174 171 182 184 182 189 203 207 219 224 229 231 235 238 239 240 238 238 238 234 236 242 239 233 222 218 218 224 193 207 217 189 195 202 205 207 207 204 197 166 116 58 42
158 162 169 165 166 169 180 194 208 212 222 226 230 234 235 238 236 235 235 236 236 242 250 234 222 222 212 220 205 222 224 168 190 201 206 208 209 207 204 202 203 209 265
168 170 164 162 159 164 170 178 195 196 214 220 225 231 233 233 234 233 233 233 232 233 245 242 220 223 223 229 199 218 218 204 204 199 206 210 211 213 213 214 216 222 234
167 172 164 165 159 165 176 182 184 197 212 218 224 229 234 230 233 233 231 232 231 229 238 247 230 220 228 234 224 212 214 217 220 190 200 210 214 217 217 219 221 225 231
172 180 183 181 177 180 184 194 195 200 210 218 225 235 239 235 236 234 232 233 234 232 233 243 238 215 216 221 225 220 219 218 224 198 200 213 217 220 221 222 224 226 229
215 216 213 207 203 203 204 205 210 208 211 213 221 235 240 238 244 241 237 237 235 233 230 235 234 211 189 196 216 215 214 211 222 216 212 217 218 219 224 224 225 226 227
271 249 238 230 222 226 224 223 223 223 222 214 220 229 235 303 342 299 279 266 244 237 230 228 229 213 192 181 199 206 219 216 231 230 229 221 219 225 222 224 226 227 225
300 270 253 243 232 233 178 237 254 233 231 226 222 217 197 203 190 203 244 304 311 287 263 236 230 223 211 198 188 190 200 205 226 205 235 244 235 241 238 235 214 214 219
358 324 299 278 257 227 139 228 237 249 237 233 229 216 203 205 219 212 188 203 220 230 262 282 269 248 220 199 191 196 205 214 221 185 216 257 241 247 250 242 214 212 217
22 14 6 355 339 19 3 271 233 237 235 229 230 233 224 215 212 253 233 233 234 220 230 254 275 288 286 192 199 209 206 215 229 205 205 252 248 252 259 253 217 219 224
33 32 28 21 17 25 18 336 261 234 234 230 225 234 246 229 116 268 256 250 244 231 189 262 316 329 360 292 232 215 205 209 234 223 197 234 266 263 262 255 222 213 227
33 35 36 31 27 23 23 7 301 241 234 222 211 214 214 281 116 218 249 257 259 249 252 216 230 225 233 211 211 233 232 231 239 240 194 211 253 267 278 254 257 234 228
Height
1550 1551 1552 1552 1554 1555 1556 1556 1558 1558 1559 1559 1559 1559 1559 1558 1558 1557 1557 1555 1556 1556 1556 1557 1557 1558 1558 1559 1560 1560 1561 1562 1562 1562 1563 1563 1564 1564 1564 1564 1564 1564 1564
1548 1549 1551 1551 1553 1554 1556 1557 1558 1558 1558 1559 1559 1558 1558 1558 1557 1557 1557 1556 1556 1556 1556 1556 1557 1557 1557 1558 1559 1559 1560 1561 1561 1561 1562 1562 1563 1563 1563 1563 1563 1563 1563
1547 1548 1549 1550 1552 1553 1555 1556 1557 1557 1558 1558 1558 1558 1558 1557 1557 1557 1556 1556 1556 1556 1556 1556 1556 1556 1557 1557 1557 1558 1559 1559 1560 1560 1561 1561 1561 1562 1562 1562 1562 1562 1562
1545 1546 1547 1549 1550 1552 1553 1554 1556 1557 1557 1558 1558 1558 1558 1557 1557 1557 1557 1556 1556 1556 1556 1555 1555 1556 1556 1556 1556 1557 1557 1558 1558 1559 1559 1559 1560 1560 1560 1561 1561 1561 1560
1543 1544 1545 1547 1548 1549 1551 1553 1554 1555 1556 1556 1557 1557 1557 1557 1557 1557 1557 1557 1556 1556 1556 1555 1555 1555 1555 1555 1555 1556 1556 1556 1557 1557 1557 1557 1558 1558 1558 1559 1559 1559 1559
1540 1541 1542 1544 1545 1546 1548 1550 1551 1552 1554 1554 1556 1556 1556 1556 1556 1556 1556 1556 1556 1555 1555 1555 1555 1554 1554 1554 1554 1555 1555 1555 1555 1555 1556 1556 1556 1556 1556 1557 1557 1557 1557
1536 1538 1539 1541 1542 1543 1544 1546 1548 1549 1551 1552 1553 1554 1554 1554 1555 1554 1555 1555 1555 1554 1554 1554 1555 1554 1554 1554 1554 1554 1554 1554 1554 1554 1554 1554 1554 1554 1554 1555 1555 1555 1555
1533 1534 1536 1537 1539 1540 1541 1543 1544 1545 1547 1548 1550 1551 1552 1553 1551 1552 1552 1553 1554 1553 1553 1553 1553 1553 1553 1554 1553 1553 1553 1553 1553 1553 1553 1553 1553 1553 1553 1553 1553 1553 1554
1530 1531 1533 1534 1535 1536 1537 1539 1540 1541 1543 1544 1546 1547 1548 1548 1549 1549 1549 1550 1551 1552 1552 1552 1552 1552 1552 1552 1552 1551 1552 1552 1552 1552 1552 1552 1552 1552 1552 1552 1552 1552 1552
1526 1528 1529 1530 1531 1532 1533 1534 1535 1537 1538 1539 1541 1542 1544 1545 1546 1546 1547 1547 1548 1549 1550 1550 1550 1551 1551 1550 1550 1550 1550 1551 1551 1551 1551 1551 1551 1551 1550 1550 1550 1550 1550
1523 1524 1525 1526 1527 1528 1529 1530 1531 1532 1533 1535 1536 1537 1539 1540 1542 1543 1544 1544 1545 1546 1547 1548 1548 1549 1549 1549 1548 1548 1549 1549 1549 1549 1550 1550 1550 1549 1549 1549 1549 1549 1549
1520 1521 1522 1523 1524 1525 1526 1527 1528 1528 1529 1531 1532 1533 1534 1535 1537 1539 1539 1540 1541 1543 1543 1544 1545 1546 1546 1546 1546 1546 1547 1547 1548 1548 1548 1548 1548 1548 1548 1547 1547 1547 1547
1519 1519 1520 1521 1521 1522 1523 1524 1524 1525 1526 1527 1528 1528 1530 1531 1532 1534 1535 1536 1538 1539 1540 1540 1541 1542 1543 1544 1544 1544 1545 1545 1546 1546 1546 1546 1546 1546 1546 1546 1545 1545 1545
1518 1518 1519 1519 1520 1520 1521 1521 1522 1522 1523 1523 1524 1525 1525 1526 1528 1529 1531 1532 1533 1535 1535 1537 1537 1538 1540 1541 1542 1542 1543 1543 1543 1544 1544 1544 1544 1544 1544 1544 1543 1543 1543
1516 1517 1518 1518 1518 1518 1519 1519 1519 1520 1520 1520 1520 1521 1522 1522 1523 1524 1526 1527 1530 1530 1531 1532 1534 1535 1536 1537 1538 1539 1541 1540 1541 1542 1542 1542 1542 1543 1542 1542 1542 1541 1541
1515 1516 1516 1517 1517 1517 1517 1517 1518 1518 1518 1518 1517 1518 1518 1519 1519 1520 1521 1522 1524 1526 1526 1527 1529 1531 1532 1533 1534 1536 1538 1538 1539 1539 1540 1540 1540 1541 1541 1540 1540 1540 1539
1514 1515 1515 1516 1516 1516 1516 1516 1516 1516 1516 1516 1515 1515 1515 1515 1516 1517 1517 1518 1519 1521 1521 1523 1525 1526 1527 1529 1531 1532 1534 1534 1535 1536 1537 1538 1538 1538 1538 1538 1538 1538 1537
1514 1515 1515 1515 1515 1515 1515 1516 1515 1515 1515 1514 1514 1513 1513 1513 1513 1513 1514 1514 1515 1516 1517 1518 1520 1521 1523 1525 1526 1528 1529 1531 1533 1533 1534 1535 1535 1536 1536 1536 1536 1535 1535
1513 1514 1514 1514 1514 1514 1515 1515 1514 1514 1514 1513 1513 1512 1512 1511 1511 1511 1511 1511 1512 1512 1513 1514 1515 1516 1518 1520 1521 1523 1525 1526 1528 1529 1530 1531 1532 1532 1533 1533 1533 1533 1533
1512 1513 1514 1514 1514 1514 1514 1514 1514 1514 1513 1512 1512 1511 1511 1510 1510 1510 1509 1509 1509 1509 1510 1510 1511 1512 1513 1514 1516 1518 1520 1521 1523 1525 1526 1527 1528 1529 1529 1530 1530 1530 1530
1511 1511 1512 1512 1512 1512 1512 1512 1513 1513 1512 1512 1511 1511 1510 1509 1508 1508 1508 1508 1507 1507 1507 1507 1508 1508 1508 1509 1511 1513 1515 1517 1519 1521 1522 1523 1524 1524 1525 1525 1526 1526 1526
1509 1509 1509 1509 1509 1509 1509 1510 1510 1511 1511 1511 1511 1510 1509 1508 1508 1507 1507 1507 1507 1506 1506 1506 1506 1506 1506 1506 1507 1509 1511 1513 1515 1517 1518 1519 1520 1520 1521 1522 1522 1522 1522
1506 1506 1506 1506 1506 1506 1506 1507 1507 1508 1509 1510 1510 1510 1509 1508 1508 1508 1507 1507 1506 1506 1506 1505 1505 1505 1505 1505 1505 1507 1508 1509 1510 1512 1513 1514 1515 1516 1517 1517 1517 1517 1518
1504 1503 1503 1503 1503 1503 1503 1503 1504 1505 1506 1507 1508 1508 1508 1508 1507 1508 1508 1508 1507 1506 1505 1505 1505 1505 1505 1504 1504 1505 1505 1505 1506 1508 1509 1509 1510 1511 1512 1512 1512 1512 1513
1503 1502 1501 1500 1500 1500 1500 1500 1501 1502 1503 1504 1505 1505 1506 1507 1506 1506 1506 1507 1507 1506 1505 1504 1504 1503 1503 1503 1503 1503 1503 1503 1504 1504 1505 1505 1506 1507 1507 1507 1507 1507 1507
1503 1502 1500 1499 1499 1498 1498 1498 1499 1500 1500 1501 1502 1503 1503 1504 1504 1505 1505 1506 1506 1505 1504 1504 1503 1503 1502 1502 1502 1502 1502 1502 1502 1502 1502 1503 1503 1503 1503 1503 1503 1502 1502